[[{"header":{"parameterUnit":"m.s-1","parameterCategory":1,"la1":30.2991,"la2":30.254,"lo1":-89.0895,"lo2":-89.0444,"dy":0.0017,"dx":0.0017,"nx":28,"ny":28,"refTime":"2024-05-11T09:00:00:Z","depth":0,"parameterNumber":2,"parameterNumberName":"U-component_of_WINDS"},"data":[0,0,0,0,0,0,0,0,0,0,0,0,0,0,0,0,0,0,0,0,0,0,0,0,0,0,0,0,0,0,0,0,0,0,0,0,0,0,0,0,0,0,0,0,0,0,0,0,0,0,0,0,0,0,0,0,0,0,0.1616,0.1616,0,0.1693,0.1694,0.1695,0.1709,0.1708,0.1708,0.1707,0.1789,0.1791,0.1794,0,0,0,0,0,0,0,0,0,0,0,0,0,0.1481,0.1483,0.1615,0.1616,0.1617,0.1693,0.1694,0.1695,0.1709,0.1708,0.1707,0.1707,0.1788,0.1791,0.1794,0,0,0,0,0,0,0,0,0,0,0,0,0,0.1547,0.1484,0.1615,0.1633,0.1636,0.1693,0.1694,0.1696,0.1709,0.1708,0.1707,0.1706,0.1787,0.1791,0.1795,0.184,0,0,0.1808,0.1809,0,0,0,0,0,0,0,0,0.1543,0.1552,0.163,0.1632,0.1635,0.169,0.1677,0.1744,0.1709,0.1681,0.1707,0.1706,0.1757,0.1764,0.178,0.1844,0.1848,0.1808,0.1811,0.1812,0.1814,0,0,0,0,0,0,0,0.1538,0.1549,0.1646,0.1631,0.1634,0.1638,0.1646,0.1689,0.1724,0.1684,0.1685,0.1694,0.1758,0.1776,0.1782,0.1849,0.1808,0.1812,0.1814,0.1816,0.1953,0.1954,0,0,0,0,0,0,0.153,0.1545,0.1644,0.1649,0.1586,0.1641,0.1651,0.1674,0.1723,0.173,0.1695,0.1694,0.177,0.1777,0.1785,0.1841,0.1812,0.1816,0.1819,0.1952,0.1953,0.1955,0,0,0,0,0,0,0.1527,0.1539,0.1641,0.1597,0.161,0.1645,0.167,0.1676,0.1694,0.1731,0.1738,0.1707,0.1769,0.1779,0.1826,0.1844,0.1818,0.1822,0.1951,0.1953,0.1954,0.1953,0,0,0,0,0,0,0.1523,0.1538,0.1555,0.1597,0.1612,0.168,0.1671,0.1678,0.1701,0.1701,0.1744,0.1751,0.1769,0.182,0.183,0.1849,0.1825,0.1949,0.1952,0.1954,0.1952,0.1955,0.1957,0,0,0,0,0,0.1519,0.1552,0.1556,0.1568,0.1635,0.1681,0.169,0.171,0.1702,0.172,0.1744,0.1749,0.1841,0.1825,0.1836,0.1857,0.1948,0.1951,0.1953,0.1951,0.1954,0.1957,0,0,0,0,0,0,0.1512,0.1558,0.1563,0.1611,0.1642,0.1683,0.1706,0.1713,0.1747,0.1746,0.177,0.1779,0.1825,0.1846,0.1827,0.1903,0.1894,0.1899,0.1888,0.1892,0.1894,0.1888,0.1829,0,0,0,0,0,0.1516,0.155,0.1588,0.1627,0.1642,0.1671,0.1692,0.1705,0.1738,0.1751,0.1779,0.1812,0.1848,0.1871,0.1906,0.1955,0.1965,0.1975,0.1978,0.198,0.1984,0.2011,0.2016,0.1963,0.1963,0.1963,0,0,0.1526,0.1555,0.1574,0.1627,0.1652,0.1686,0.1682,0.1719,0.1745,0.1757,0.1803,0.1824,0.1862,0.191,0.1933,0.1929,0.2001,0.1983,0.1985,0.1988,0.2014,0.2019,0.2024,0.1965,0.1965,0.1964,0,0,0.1559,0.1585,0.162,0.1645,0.1683,0.1702,0.1711,0.1751,0.1765,0.1811,0.1821,0.1853,0.1914,0.1941,0.1962,0.2005,0.2011,0.2016,0.203,0.2056,0.2061,0.2064,0.2079,0.2085,0.202,0.202,0.202,0,0.1566,0.1617,0.1637,0.1673,0.1696,0.1708,0.1744,0.1767,0.1815,0.1831,0.1826,0.1903,0.1929,0.1983,0.1994,0.2011,0.2021,0.2011,0.2058,0.2062,0.2066,0.2081,0.2086,0.2021,0.202,0.202,0.202,0,0.1623,0.1659,0.1683,0.1727,0.1753,0.1789,0.1814,0.1838,0.1848,0.1868,0.1914,0.1946,0.1988,0.2002,0.2013,0.2057,0.2054,0.2053,0.2044,0.2071,0.2085,0.2091,0.2021,0.2021,0.2021,0.2021,0,0,0.1655,0.1711,0.1719,0.1739,0.1782,0.181,0.1846,0.1886,0.1906,0.1939,0.1969,0.2021,0.202,0.2045,0.2059,0.2082,0.2113,0.2078,0.208,0.2083,0.2164,0.2164,0.217,0.2118,0.2119,0.212,0.2161,0,0.1694,0.1758,0.1777,0.1831,0.1864,0.1876,0.1908,0.1937,0.1957,0.1988,0.201,0.2046,0.2043,0.2057,0.208,0.2104,0.213,0.2102,0.2147,0.2148,0.2136,0.2177,0.2178,0.2215,0.2166,0.2167,0.2168,0,0.1748,0.178,0.1837,0.1875,0.189,0.1918,0.1956,0.1985,0.202,0.2032,0.2059,0.2071,0.2109,0.2098,0.2151,0.2132,0.2152,0.2166,0.2168,0.2173,0.2159,0.2183,0.2227,0.2232,0.2177,0.2176,0.2176,0,0.1765,0.1823,0.1865,0.1882,0.1927,0.1947,0.1967,0.2,0.2022,0.2056,0.2071,0.2108,0.2129,0.2158,0.218,0.217,0.2231,0.2222,0.2243,0.2242,0.2255,0.2254,0.2302,0.2268,0.2268,0.2268,0.2268,0,0.1805,0.184,0.1873,0.1898,0.1937,0.1959,0.1997,0.2018,0.2047,0.2077,0.209,0.2118,0.2145,0.2177,0.2194,0.2236,0.2245,0.2256,0.226,0.2255,0.2253,0.2268,0.2266,0.227,0.2269,0.2269,0.2269,0,0.1831,0.1854,0.19,0.1939,0.195,0.1977,0.2011,0.2036,0.2056,0.2094,0.2104,0.2135,0.2173,0.2197,0.2246,0.2258,0.2303,0.2307,0.2291,0.2293,0.2312,0.231,0.2371,0.238,0.234,0.2341,0.2341,0,0.1855,0.1882,0.1923,0.1944,0.1964,0.1997,0.202,0.2043,0.2066,0.2107,0.2127,0.2166,0.2198,0.2258,0.2285,0.2322,0.2327,0.2346,0.2332,0.2326,0.2326,0.2324,0.2327,0.2348,0.2348,0.2348,0.2349,0,0.1895,0.1906,0.1938,0.1974,0.2001,0.2031,0.206,0.2077,0.2104,0.213,0.2168,0.2193,0.2242,0.2281,0.232,0.2341,0.235,0.2352,0.2359,0.2354,0.2343,0.2348,0.2296,0.2351,0.2351,0.2351,0.235,0.235,0.1921,0.1945,0.1978,0.2013,0.2038,0.2065,0.2091,0.2113,0.2145,0.2187,0.2198,0.2238,0.2272,0.2325,0.2347,0.2379,0.2377,0.2387,0.2389,0.2391,0.2391,0.2338,0.2387,0.2387,0.2387,0.2387,0.2387,0,0.1961,0.1983,0.2015,0.2056,0.2084,0.2089,0.2122,0.2145,0.218,0.221,0.2241,0.2285,0.2322,0.2352,0.239,0.241,0.2414,0.2419,0.2418,0.2422,0.2391,0.2381,0.2414,0.2414,0.2414,0.2414,0.2414,0.2414,0.1986,0.2026,0.204,0.2093,0.2115,0.2154,0.2172,0.2197,0.2222,0.227,0.23,0.2319,0.235,0.239,0.2424,0.2432,0.2445,0.2449,0.2457,0.2428,0.2424,0.2421,0.2412,0.2451,0.2452,0.2486,0.2486,0.2486]},{"header":{"parameterUnit":"m.s-1","parameterCategory":1,"la1":30.2991,"la2":30.254,"lo1":-89.0895,"lo2":-89.0444,"dy":0.0017,"dx":0.0017,"nx":28,"ny":28,"refTime":"2024-05-11T09:00:00:Z","depth":0,"parameterNumber":3,"parameterNumberName":"V-component_of_WINDS"},"data":[0,0,0,0,0,0,0,0,0,0,0,0,0,0,0,0,0,0,0,0,0,0,0,0,0,0,0,0,0,0,0,0,0,0,0,0,0,0,0,0,0,0,0,0,0,0,0,0,0,0,0,0,0,0,0,0,0,0,0.143,0.1429,0,0.1325,0.1324,0.1323,0.1201,0.1199,0.1197,0.1195,0.1091,0.109,0.1089,0,0,0,0,0,0,0,0,0,0,0,0,0,0.1527,0.1526,0.143,0.1429,0.1428,0.1325,0.1324,0.1322,0.1201,0.1199,0.1197,0.1195,0.1091,0.109,0.1089,0,0,0,0,0,0,0,0,0,0,0,0,0,0.146,0.1525,0.143,0.1355,0.1347,0.1326,0.1324,0.1322,0.1202,0.1199,0.1196,0.1193,0.1092,0.109,0.1089,0.1134,0,0,0.1084,0.1083,0,0,0,0,0,0,0,0,0.1464,0.1456,0.1367,0.136,0.1351,0.1273,0.1319,0.1259,0.1202,0.1257,0.1195,0.1192,0.1154,0.1147,0.1134,0.1129,0.1125,0.1084,0.1083,0.1082,0.1081,0,0,0,0,0,0,0,0.1468,0.146,0.1389,0.1366,0.1356,0.1326,0.1314,0.1307,0.1222,0.1252,0.1243,0.1232,0.1149,0.1135,0.113,0.1123,0.1084,0.1082,0.1081,0.1081,0.1147,0.115,0,0,0,0,0,0,0.1484,0.1465,0.1392,0.1385,0.1402,0.1327,0.1313,0.1301,0.1222,0.1207,0.1234,0.1227,0.1139,0.1132,0.1126,0.1171,0.1082,0.108,0.1079,0.1145,0.1148,0.1151,0,0,0,0,0,0,0.1487,0.1479,0.1396,0.1423,0.141,0.1328,0.1316,0.13,0.1286,0.1209,0.1193,0.1236,0.1137,0.1128,0.1132,0.1166,0.108,0.1078,0.1141,0.1146,0.1149,0.1265,0,0,0,0,0,0,0.149,0.1481,0.1497,0.1424,0.1409,0.1404,0.1318,0.13,0.1284,0.1273,0.1206,0.1192,0.1134,0.1135,0.113,0.1163,0.1077,0.1138,0.1143,0.1148,0.1258,0.1273,0.1285,0,0,0,0,0,0.1494,0.1535,0.1499,0.149,0.1428,0.1406,0.1398,0.1329,0.1287,0.1303,0.1252,0.1195,0.1164,0.1136,0.113,0.1163,0.1135,0.1142,0.1148,0.1252,0.127,0.1285,0,0,0,0,0,0,0.1617,0.1524,0.1483,0.1501,0.1462,0.1386,0.1404,0.1351,0.1324,0.1315,0.1231,0.1217,0.1231,0.1197,0.1168,0.1201,0.1141,0.1146,0.1222,0.1238,0.1252,0.1259,0.1076,0,0,0,0,0,0.1646,0.1635,0.1556,0.158,0.1562,0.1487,0.1475,0.1425,0.1382,0.1365,0.1315,0.1276,0.1256,0.1246,0.1224,0.1252,0.1235,0.1271,0.1285,0.1297,0.1302,0.1311,0.1325,0.1171,0.1171,0.1171,0,0,0.1706,0.1654,0.1653,0.1603,0.1567,0.1558,0.1474,0.1469,0.1461,0.1364,0.1364,0.1326,0.1276,0.1292,0.1296,0.1264,0.134,0.1305,0.1314,0.1313,0.1319,0.1334,0.1347,0.1175,0.1174,0.1174,0,0,0.1811,0.1772,0.1785,0.175,0.1696,0.1645,0.1649,0.1579,0.1549,0.1547,0.1474,0.1464,0.1433,0.14,0.1379,0.1468,0.1413,0.1464,0.1535,0.1545,0.1557,0.1568,0.1597,0.1609,0.1469,0.147,0.147,0,0.1893,0.1875,0.18,0.1798,0.1777,0.1688,0.1701,0.1671,0.1613,0.1601,0.1566,0.1523,0.1484,0.1489,0.151,0.1497,0.1497,0.1471,0.1562,0.1571,0.158,0.1607,0.1618,0.1476,0.1475,0.1475,0.1474,0,0.1978,0.1967,0.1985,0.1929,0.191,0.1917,0.1842,0.1832,0.1783,0.1736,0.1734,0.1683,0.1648,0.1645,0.1599,0.1643,0.1624,0.1577,0.1515,0.1602,0.1626,0.1636,0.1485,0.1483,0.1481,0.1479,0,0,0.2157,0.2057,0.2065,0.2037,0.1969,0.196,0.1961,0.1925,0.1918,0.1881,0.1878,0.1853,0.1808,0.1784,0.1733,0.1742,0.1812,0.1692,0.169,0.1715,0.1854,0.1889,0.1903,0.1776,0.1777,0.1779,0.1857,0,0.2248,0.2244,0.2175,0.219,0.2177,0.2091,0.2092,0.205,0.2006,0.1989,0.194,0.1922,0.1865,0.1849,0.1855,0.1803,0.1839,0.1796,0.1772,0.1772,0.1785,0.1915,0.1953,0.203,0.1867,0.1868,0.1869,0,0.2354,0.232,0.2334,0.2262,0.2255,0.2257,0.2216,0.2202,0.2152,0.2119,0.2092,0.2032,0.2028,0.197,0.1962,0.1934,0.192,0.1893,0.1894,0.1888,0.1825,0.1911,0.2053,0.2064,0.1884,0.1883,0.1882,0,0.248,0.2439,0.244,0.242,0.2338,0.234,0.2306,0.2254,0.2236,0.2201,0.2188,0.2155,0.2136,0.2111,0.2043,0.2008,0.2042,0.1979,0.2013,0.2014,0.2023,0.2023,0.2163,0.2017,0.2017,0.2017,0.2017,0,0.2588,0.2599,0.2495,0.2497,0.2506,0.2426,0.2437,0.2395,0.2349,0.234,0.2264,0.2257,0.2169,0.2152,0.21,0.2099,0.2092,0.2064,0.205,0.207,0.2073,0.2058,0.205,0.202,0.2019,0.2019,0.2018,0,0.2731,0.2662,0.2657,0.2579,0.256,0.257,0.2503,0.25,0.245,0.2439,0.2432,0.2353,0.2329,0.2259,0.2218,0.2183,0.2196,0.2171,0.2213,0.2203,0.2239,0.2236,0.2373,0.2386,0.2235,0.2237,0.2238,0,0.2803,0.2809,0.273,0.2718,0.2686,0.2668,0.2648,0.257,0.2553,0.2495,0.2499,0.2468,0.2439,0.2404,0.2343,0.231,0.2282,0.2332,0.2277,0.2295,0.228,0.2279,0.2278,0.2344,0.2346,0.2348,0.2349,0,0.2938,0.2902,0.2877,0.2838,0.2816,0.2783,0.2745,0.274,0.2652,0.2636,0.2609,0.2587,0.2542,0.2512,0.2469,0.2433,0.2376,0.2367,0.2372,0.2392,0.2415,0.2401,0.2243,0.2364,0.2363,0.2362,0.2361,0.236,0.3045,0.3045,0.2989,0.2962,0.2925,0.2891,0.2883,0.2831,0.2807,0.2764,0.272,0.2697,0.2645,0.2581,0.2549,0.253,0.25,0.2509,0.2511,0.2513,0.2522,0.242,0.2522,0.2522,0.2521,0.2521,0.252,0,0.3174,0.3133,0.3109,0.3057,0.3035,0.2982,0.2937,0.2923,0.2903,0.2859,0.2831,0.2799,0.2769,0.2705,0.2668,0.2665,0.2637,0.2658,0.2656,0.2648,0.2552,0.255,0.268,0.268,0.268,0.268,0.268,0.268,0.3238,0.3234,0.3192,0.3169,0.3128,0.3104,0.3082,0.305,0.3013,0.2981,0.2954,0.2912,0.2859,0.2818,0.2787,0.2769,0.2758,0.2786,0.276,0.2671,0.2656,0.2641,0.2638,0.2785,0.2785,0.2857,0.2858,0.2858]}]]